Location: Proctor
(47.8934°N, 114.3048°W)
Time: 04:49:32
(UTC+00:00)

Envisat - Pass Details

Date: 23 May 2024
Orbit: 762 x 764 km, 98.3° (Epoch: 13 June)

Event Time Altitude Azimuth Distance (km) Brightness Sun altitude
Rises 09:52:46 0° 26° (NNE) 3,238 8.1 -14.7°
Reaches altitude 10° 09:55:37 10° 42° (NE) 2,307 6.9 -14.4°
Maximum altitude 09:59:29 22° 91° (E) 1,645 5.1 -14.0°
Drops below altitude 10° 10:03:19 10° 141° (SE) 2,293 5.3 -13.7°
Sets 10:06:07 0° 157° (SSE) 3,213 5.9 -13.4°
